TimeCST,TemperatureF,Dew PointF,Humidity,Sea Level PressureIn,VisibilityMPH,Wind Direction,Wind SpeedMPH,Gust SpeedMPH,PrecipitationIn,Events,Conditions,WindDirDegrees,DateUTC
12:00 AM,-5.8,-13.0,71,30.40,15.0,Calm,Calm,-,N/A,Snow,Light Snow,0,2012-11-04 05:00:00
12:29 AM,-9999,-9999,N/A,-9999,15.0,Calm,Calm,-,N/A,,Mostly Cloudy,0,2012-11-04 05:29:00
1:00 AM,-6,-12,65,30.39,15,Calm,Calm,,,,Partly Cloudy,,2012-11-04 06:00:00
1:00 AM,-5.8,-11.2,77,30.39,15.0,Calm,Calm,-,N/A,,Mostly Cloudy,0,2012-11-04 06:00:00
1:00 AM,-5.8,-11.2,77,30.37,15.0,East,3.5,-,N/A,,Mostly Cloudy,80,2012-11-04 07:00:00
2:00 AM,1.4,-4.0,78,30.35,15.0,ESE,6.9,-,N/A,,Mostly Cloudy,110,2012-11-04 08:00:00
2:27 AM,-9999,-9999,N/A,-9999,15.0,ESE,3.5,-,N/A,,Mostly Cloudy,120,2012-11-04 08:27:00
3:00 AM,3.2,-0.4,85,30.32,15.0,ESE,3.5,-,N/A,,Overcast,110,2012-11-04 09:00:00
5:00 AM,15.8,14.0,93,30.23,15.0,SSE,20.7,-,N/A,,Overcast,160,2012-11-04 11:00:00
6:00 AM,17,16,94,30.20,15,SSE,21.9,,,,Partly Cloudy,160,2012-11-04 12:00:00
6:00 AM,17.6,15.8,93,30.20,15.0,SSE,21.9,-,N/A,Snow,Low Drifting Snow,160,2012-11-04 12:00:00
7:00 AM,17.6,15.8,93,30.17,15.0,South,18.4,-,N/A,Snow,Low Drifting Snow,170,2012-11-04 13:00:00
8:00 AM,17.6,15.8,93,30.12,15.0,South,24.2,31.1,N/A,Snow,Low Drifting Snow,180,2012-11-04 14:00:00
9:00 AM,15.8,14.0,93,30.11,15.0,South,21.9,29.9,N/A,Snow,Low Drifting Snow,190,2012-11-04 15:00:00
10:00 AM,15.8,14.0,93,30.08,20.0,South,26.5,32.2,N/A,Snow,Low Drifting Snow,180,2012-11-04 16:00:00
11:00 AM,17.6,14.0,86,30.04,20.0,South,25.3,31.1,N/A,Snow,Low Drifting Snow,180,2012-11-04 17:00:00
12:00 PM,17,14,82,30.04,19,South,25.3,,,,Mostly Cloudy,190,2012-11-04 18:00:00
12:00 PM,17.6,14.0,86,30.04,20.0,South,18.4,25.3,N/A,Snow,Low Drifting Snow,190,2012-11-04 18:00:00
1:00 PM,15.8,14.0,93,30.02,15.0,SSW,15.0,25.3,N/A,Snow,Low Drifting Snow,200,2012-11-04 19:00:00
2:00 PM,15.8,12.2,86,30.01,15.0,SSW,16.1,26.5,N/A,Snow,Low Drifting Snow,210,2012-11-04 20:00:00
3:00 PM,15.8,12.2,86,29.98,15.0,SSW,15.0,26.5,N/A,Snow,Low Drifting Snow,200,2012-11-04 21:00:00
4:00 PM,15.8,14.0,93,29.97,15.0,SSW,11.5,24.2,N/A,Snow,Low Drifting Snow,200,2012-11-04 22:00:00
5:00 PM,15.8,14.0,93,29.96,15.0,SSW,13.8,24.2,N/A,Snow,Low Drifting Snow,210,2012-11-04 23:00:00
5:43 PM,-9999,-9999,N/A,-9999,15.0,SSW,12.7,19.6,N/A,,Unknown,210,2012-11-04 23:43:00
6:00 PM,17,15,88,29.92,15,SSW,13.8,,,Snow,Light Snow,210,2012-11-05 00:00:00
6:00 PM,17.6,15.8,93,29.92,15.0,SSW,12.7,20.7,N/A,Snow,Light Snow,210,2012-11-05 00:00:00
7:00 PM,17.6,15.8,93,29.90,15.0,SSW,12.7,-,N/A,Snow,Light Snow,200,2012-11-05 01:00:00
8:00 PM,19.4,17.6,93,29.88,6.0,SSW,8.1,-,N/A,Snow,Light Snow,200,2012-11-05 02:00:00
9:00 PM,21.2,19.4,93,29.85,4.0,SSW,9.2,-,N/A,Snow,Light Snow,200,2012-11-05 03:00:00
10:00 PM,21.2,19.4,93,29.82,10.0,SW,5.8,-,N/A,Snow,Light Snow,220,2012-11-05 04:00:00